Tracking 19846 objects as of 18-Sep-2019
HD Live streaming from Space Station
objects crossing your sky now

FENGYUN 1C DEB

Track FENGYUN 1C DEB now!
10-day predictions


NORAD ID: 32211
Int'l Code: 1999-025CVH
Perigee: 826.5 km
Apogee: 1,028.2 km
Inclination: 98.6 °
Period: 103.4 minutes
Semi major axis: 7298 km
RCS: 0.0093 m2 (small)
Launch date: May 10, 1999
Source: People's Republic of China (PRC)
Launch site: Taiyaun Space Center, China (TSC)

Note: This is SATELLITE DEBRIS
aabbcc
Your satellite tracking list
Your tracking list is empty




NASA's NSSDC Master Catalog

Two Line Element Set (TLE):
1 32211U 99025CVH 19256.92232733  .00000852  00000-0  64068-3 0  9990
2 32211  98.6011 289.1654 0138136 124.4814 357.1954 13.92409863612971
Source of the keplerian elements: AFSPC